START_TIME,STEP,MOV.,E45,t_acc.,ALAR?,t_acc.,A12,t_acc.,A24,t_acc.
1979-08-02 03:00:25.140 ,1,0,14.,4.8,592.,4.8,0.,4.8,0.,4.8
1979-08-02 03:00:29.940 ,1,0,7.,4.8,624.,4.8,0.,4.8,0.,4.8
1979-08-02 03:00:34.740 ,1,0,3.,4.8,592.,4.8,0.,4.8,0.,4.8
1979-08-02 03:00:39.540 ,1,0,8.,4.8,592.,4.8,0.,4.8,0.,4.8
1979-08-02 03:00:44.340 ,1,0,12.,4.8,608.,4.8,0.,4.8,0.,4.8
1979-08-02 03:00:49.140 ,2,0,6.,4.8,560.,4.8,1.,4.8,0.,4.8
1979-08-02 03:00:53.940 ,2,0,9.,4.8,576.,4.8,0.,4.8,0.,4.8
1979-08-02 03:00:58.740 ,2,0,11.,4.8,592.,4.8,0.,4.8,0.,4.8
1979-08-02 03:01:03.540 ,2,0,14.,4.8,560.,4.8,0.,4.8,0.,4.8
1979-08-02 03:01:08.340 ,2,0,8.,4.8,624.,4.8,0.,4.8,0.,4.8
1979-08-02 03:01:13.140 ,2,0,11.,4.8,592.,4.8,0.,4.8,0.,4.8
1979-08-02 03:01:17.940 ,2,0,8.,4.8,592.,4.8,0.,4.8,0.,4.8
1979-08-02 03:01:22.740 ,2,0,7.,4.8,576.,4.8,0.,4.8,0.,4.8
1979-08-02 03:01:27.540 ,2,0,11.,4.8,576.,4.8,0.,4.8,0.,4.8
1979-08-02 03:01:32.340 ,2,0,10.,4.8,576.,4.8,0.,4.8,0.,4.8
1979-08-02 03:01:37.140 ,3,0,5.,4.8,560.,4.8,0.,4.8,0.,4.8
1979-08-02 03:01:41.940 ,3,0,4.,4.8,560.,4.8,0.,4.8,0.,4.8
1979-08-02 03:01:46.740 ,3,0,6.,4.8,528.,4.8,0.,4.8,0.,4.8
1979-08-02 03:01:51.540 ,3,0,11.,4.8,488.,4.8,0.,4.8,0.,4.8
1979-08-02 03:01:56.340 ,3,0,6.,4.8,560.,4.8,0.,4.8,0.,4.8
1979-08-02 03:02:01.140 ,3,0,9.,4.8,560.,4.8,0.,4.8,0.,4.8
1979-08-02 03:02:05.940 ,3,0,3.,4.8,576.,4.8,0.,4.8,0.,4.8
1979-08-02 03:02:10.740 ,3,0,8.,4.8,544.,4.8,0.,4.8,0.,4.8
1979-08-02 03:02:15.540 ,3,0,9.,4.8,592.,4.8,0.,4.8,0.,4.8
1979-08-02 03:02:20.340 ,3,0,6.,4.8,624.,4.8,0.,4.8,0.,4.8
1979-08-02 03:02:25.140 ,4,0,7.,4.8,704.,4.8,0.,4.8,0.,4.8
1979-08-02 03:02:29.940 ,4,0,18.,4.8,912.,4.8,0.,4.8,0.,4.8
1979-08-02 03:02:34.740 ,4,0,29.,4.8,1024.,4.8,0.,4.8,0.,4.8
1979-08-02 03:02:39.540 ,4,0,23.,4.8,1248.,4.8,0.,4.8,0.,4.8
1979-08-02 03:02:44.340 ,4,0,46.,4.8,1696.,4.8,0.,4.8,0.,4.8
1979-08-02 03:02:49.140 ,4,0,63.,4.8,1952.,4.8,0.,4.8,0.,4.8
1979-08-02 03:02:53.940 ,4,0,57.,4.8,1920.,4.8,0.,4.8,0.,4.8
1979-08-02 03:02:58.740 ,4,0,51.,4.8,1920.,4.8,0.,4.8,0.,4.8
1979-08-02 03:03:03.540 ,4,0,40.,4.8,1920.,4.8,0.,4.8,0.,4.8
1979-08-02 03:03:08.340 ,4,0,54.,4.8,1728.,4.8,0.,4.8,0.,4.8
1979-08-02 03:03:13.140 ,5,0,45.,4.8,1760.,4.8,0.,4.8,0.,4.8
1979-08-02 03:03:17.940 ,5,0,44.,4.8,1664.,4.8,0.,4.8,0.,4.8
1979-08-02 03:03:22.740 ,5,0,43.,4.8,1504.,4.8,0.,4.8,0.,4.8
1979-08-02 03:03:27.540 ,5,0,37.,4.8,1440.,4.8,0.,4.8,0.,4.8
1979-08-02 03:03:32.340 ,5,0,38.,4.8,1440.,4.8,0.,4.8,0.,4.8
1979-08-02 03:03:37.140 ,5,0,34.,4.8,1440.,4.8,0.,4.8,0.,4.8
1979-08-02 03:03:41.940 ,5,0,43.,4.8,1376.,4.8,0.,4.8,0.,4.8
1979-08-02 03:03:46.740 ,5,0,39.,4.8,1312.,4.8,0.,4.8,0.,4.8
1979-08-02 03:03:51.540 ,5,0,47.,4.8,1344.,4.8,0.,4.8,0.,4.8
1979-08-02 03:03:56.340 ,5,0,34.,4.8,1280.,4.8,0.,4.8,0.,4.8
1979-08-02 03:04:01.140 ,6,0,48.,4.8,1280.,4.8,0.,4.8,0.,4.8
1979-08-02 03:04:05.940 ,6,0,31.,4.8,1184.,4.8,0.,4.8,0.,4.8
1979-08-02 03:04:10.740 ,6,0,38.,4.8,1152.,4.8,0.,4.8,0.,4.8
1979-08-02 03:04:15.540 ,6,0,30.,4.8,1216.,4.8,0.,4.8,0.,4.8
1979-08-02 03:04:20.340 ,6,0,33.,4.8,1216.,4.8,0.,4.8,0.,4.8
1979-08-02 03:04:25.140 ,6,0,31.,4.8,1184.,4.8,0.,4.8,0.,4.8
1979-08-02 03:04:29.940 ,6,0,30.,4.8,1152.,4.8,0.,4.8,0.,4.8
1979-08-02 03:04:34.740 ,6,0,29.,4.8,1088.,4.8,0.,4.8,0.,4.8
1979-08-02 03:04:39.540 ,6,0,32.,4.8,1056.,4.8,0.,4.8,0.,4.8
1979-08-02 03:04:44.340 ,6,0,29.,4.8,1008.,4.8,0.,4.8,0.,4.8
1979-08-02 03:04:49.140 ,7,0,27.,4.8,1024.,4.8,0.,4.8,0.,4.8
1979-08-02 03:04:53.940 ,7,0,18.,4.8,848.,4.8,0.,4.8,0.,4.8
1979-08-02 03:04:58.740 ,7,0,14.,4.8,928.,4.8,0.,4.8,0.,4.8
1979-08-02 03:05:03.540 ,7,0,21.,4.8,880.,4.8,0.,4.8,0.,4.8
1979-08-02 03:05:08.340 ,7,0,14.,4.8,880.,4.8,0.,4.8,0.,4.8
1979-08-02 03:05:13.140 ,7,0,19.,4.8,896.,4.8,0.,4.8,0.,4.8
1979-08-02 03:05:17.940 ,7,0,7.,4.8,784.,4.8,0.,4.8,0.,4.8
1979-08-02 03:05:22.740 ,7,0,19.,4.8,816.,4.8,0.,4.8,0.,4.8
1979-08-02 03:05:27.540 ,7,0,15.,4.8,880.,4.8,0.,4.8,0.,4.8
1979-08-02 03:05:32.340 ,7,0,11.,4.8,832.,4.8,0.,4.8,0.,4.8
1979-08-02 03:05:37.140 ,7,0,11.,4.8,800.,4.8,0.,4.8,0.,4.8
1979-08-02 03:05:41.940 ,7,0,15.,4.8,816.,4.8,0.,4.8,0.,4.8
1979-08-02 03:05:46.740 ,7,0,18.,4.8,816.,4.8,0.,4.8,0.,4.8
1979-08-02 03:05:51.540 ,7,0,18.,4.8,800.,4.8,0.,4.8,0.,4.8
1979-08-02 03:05:56.340 ,7,0,14.,4.8,848.,4.8,0.,4.8,0.,4.8
1979-08-02 03:06:01.140 ,7,0,16.,4.8,784.,4.8,0.,4.8,0.,4.8
1979-08-02 03:06:05.940 ,7,0,21.,4.8,768.,4.8,0.,4.8,0.,4.8
1979-08-02 03:06:10.740 ,7,0,7.,4.8,800.,4.8,0.,4.8,0.,4.8
1979-08-02 03:06:15.540 ,7,0,14.,4.8,800.,4.8,0.,4.8,0.,4.8
1979-08-02 03:06:20.340 ,7,0,17.,4.8,848.,4.8,0.,4.8,0.,4.8
1979-08-02 03:06:25.140 ,6,0,14.,4.8,816.,4.8,0.,4.8,0.,4.8
1979-08-02 03:06:29.940 ,6,0,13.,4.8,928.,4.8,0.,4.8,0.,4.8
1979-08-02 03:06:34.740 ,6,0,18.,4.8,880.,4.8,1.,4.8,0.,4.8
1979-08-02 03:06:39.540 ,6,0,20.,4.8,864.,4.8,0.,4.8,0.,4.8
1979-08-02 03:06:44.340 ,6,0,23.,4.8,880.,4.8,0.,4.8,0.,4.8
1979-08-02 03:06:49.140 ,6,0,18.,4.8,816.,4.8,0.,4.8,0.,4.8
1979-08-02 03:06:53.940 ,6,0,26.,4.8,816.,4.8,0.,4.8,0.,4.8
1979-08-02 03:06:58.740 ,6,0,27.,4.8,784.,4.8,0.,4.8,0.,4.8
1979-08-02 03:07:03.540 ,6,0,10.,4.8,784.,4.8,0.,4.8,0.,4.8
1979-08-02 03:07:08.340 ,6,0,19.,4.8,864.,4.8,0.,4.8,0.,4.8
1979-08-02 03:07:13.140 ,0,0,15.,4.8,816.,4.8,0.,4.8,0.,4.8
1979-08-02 03:07:17.940 ,0,0,22.,4.8,816.,4.8,0.,4.8,0.,4.8
1979-08-02 03:07:22.740 ,0,0,,0,,0,,0,,0
1979-08-02 03:07:27.540 ,0,0,,0,,0,,0,,0
1979-08-02 03:07:32.340 ,0,0,,0,,0,,0,,0
1979-08-02 03:07:37.140 ,0,0,,0,,0,,0,,0
1979-08-02 03:07:41.940 ,0,0,,0,,0,,0,,0
1979-08-02 03:07:46.740 ,0,0,,0,,0,,0,,0
1979-08-02 03:07:51.540 ,0,0,,0,,0,,0,,0
1979-08-02 03:07:56.340 ,0,0,,0,,0,,0,,0
1979-08-02 03:07:37.140 ,5,0,37.,4.8,1008.,4.8,0.,4.8,0.,4.8
1979-08-02 03:07:41.940 ,5,0,30.,4.8,992.,4.8,0.,4.8,0.,4.8
1979-08-02 03:07:46.740 ,5,0,35.,4.8,928.,4.8,0.,4.8,0.,4.8
1979-08-02 03:07:51.540 ,5,0,24.,4.8,992.,4.8,0.,4.8,0.,4.8
1979-08-02 03:07:56.340 ,5,0,31.,4.8,944.,4.8,0.,4.8,0.,4.8
1979-08-02 03:08:01.140 ,4,0,28.,4.8,960.,4.8,0.,4.8,0.,4.8
1979-08-02 03:08:05.940 ,4,0,22.,4.8,1056.,4.8,0.,4.8,0.,4.8
1979-08-02 03:08:10.740 ,4,0,20.,4.8,928.,4.8,0.,4.8,0.,4.8
1979-08-02 03:08:15.540 ,4,0,25.,4.8,992.,4.8,0.,4.8,0.,4.8
1979-08-02 03:08:20.340 ,4,0,28.,4.8,976.,4.8,0.,4.8,0.,4.8
1979-08-02 03:08:25.140 ,4,0,25.,4.8,896.,4.8,0.,4.8,0.,4.8
1979-08-02 03:08:29.940 ,4,0,13.,4.8,928.,4.8,0.,4.8,0.,4.8
1979-08-02 03:08:34.740 ,4,0,23.,4.8,896.,4.8,0.,4.8,0.,4.8
1979-08-02 03:08:39.540 ,4,0,23.,4.8,1008.,4.8,0.,4.8,0.,4.8
1979-08-02 03:08:44.340 ,4,0,19.,4.8,912.,4.8,0.,4.8,0.,4.8
1979-08-02 03:08:49.140 ,3,0,14.,4.8,880.,4.8,0.,4.8,0.,4.8
1979-08-02 03:08:53.940 ,3,0,30.,4.8,928.,4.8,0.,4.8,0.,4.8
1979-08-02 03:08:58.740 ,3,0,13.,4.8,944.,4.8,0.,4.8,0.,4.8
1979-08-02 03:09:03.540 ,3,0,12.,4.8,896.,4.8,0.,4.8,0.,4.8
1979-08-02 03:09:08.340 ,3,0,16.,4.8,928.,4.8,0.,4.8,0.,4.8
1979-08-02 03:09:13.140 ,3,0,12.,4.8,896.,4.8,0.,4.8,0.,4.8
1979-08-02 03:09:17.940 ,3,0,11.,4.8,944.,4.8,0.,4.8,0.,4.8
1979-08-02 03:09:22.740 ,3,0,6.,4.8,864.,4.8,0.,4.8,0.,4.8
1979-08-02 03:09:27.540 ,3,0,10.,4.8,800.,4.8,0.,4.8,0.,4.8
1979-08-02 03:09:32.340 ,3,0,11.,4.8,896.,4.8,0.,4.8,0.,4.8
1979-08-02 03:09:37.140 ,2,0,11.,4.8,864.,4.8,0.,4.8,0.,4.8
1979-08-02 03:09:41.940 ,2,0,18.,4.8,864.,4.8,0.,4.8,0.,4.8
1979-08-02 03:09:46.740 ,2,0,15.,4.8,864.,4.8,0.,4.8,0.,4.8
1979-08-02 03:09:51.540 ,2,0,14.,4.8,880.,4.8,0.,4.8,0.,4.8
1979-08-02 03:09:56.340 ,2,0,9.,4.8,864.,4.8,0.,4.8,0.,4.8
1979-08-02 03:10:01.140 ,2,0,16.,4.8,912.,4.8,0.,4.8,0.,4.8
1979-08-02 03:10:05.940 ,2,0,11.,4.8,832.,4.8,0.,4.8,0.,4.8
1979-08-02 03:10:10.740 ,2,0,18.,4.8,896.,4.8,0.,4.8,0.,4.8
1979-08-02 03:10:15.540 ,2,0,20.,4.8,896.,4.8,0.,4.8,0.,4.8
1979-08-02 03:10:20.340 ,2,0,13.,4.8,912.,4.8,0.,4.8,0.,4.8
1979-08-02 03:10:25.140 ,1,0,17.,4.8,912.,4.8,0.,4.8,0.,4.8
1979-08-02 03:10:29.940 ,1,0,26.,4.8,960.,4.8,0.,4.8,0.,4.8
1979-08-02 03:10:34.740 ,1,0,11.,4.8,960.,4.8,0.,4.8,0.,4.8
1979-08-02 03:10:39.540 ,1,0,23.,4.8,976.,4.8,0.,4.8,0.,4.8
1979-08-02 03:10:44.340 ,1,0,15.,4.8,912.,4.8,0.,4.8,0.,4.8
1979-08-02 03:10:49.140 ,1,0,17.,4.8,944.,4.8,0.,4.8,0.,4.8
1979-08-02 03:10:53.940 ,1,0,15.,4.8,944.,4.8,0.,4.8,0.,4.8
1979-08-02 03:10:58.740 ,1,0,17.,4.8,976.,4.8,0.,4.8,0.,4.8
1979-08-02 03:11:03.540 ,1,0,17.,4.8,976.,4.8,0.,4.8,0.,4.8
1979-08-02 03:11:08.340 ,1,0,15.,4.8,944.,4.8,0.,4.8,0.,4.8
1979-08-02 03:11:13.140 ,0,0,22.,4.8,944.,4.8,0.,4.8,0.,4.8
1979-08-02 03:11:17.940 ,0,0,15.,4.8,960.,4.8,0.,4.8,0.,4.8
1979-08-02 03:11:22.740 ,0,0,22.,4.8,1008.,4.8,0.,4.8,0.,4.8
1979-08-02 03:11:27.540 ,0,0,9.,4.8,912.,4.8,0.,4.8,0.,4.8
1979-08-02 03:11:32.340 ,0,0,18.,4.8,912.,4.8,0.,4.8,0.,4.8
1979-08-02 03:11:37.140 ,0,0,17.,4.8,896.,4.8,0.,4.8,0.,4.8
1979-08-02 03:11:41.940 ,0,0,15.,4.8,896.,4.8,0.,4.8,0.,4.8
1979-08-02 03:11:46.740 ,0,0,11.,4.8,928.,4.8,0.,4.8,0.,4.8
1979-08-02 03:11:51.540 ,0,0,11.,4.8,816.,4.8,0.,4.8,0.,4.8
1979-08-02 03:11:56.340 ,0,0,14.,4.8,848.,4.8,0.,4.8,0.,4.8
1979-08-02 03:12:01.140 ,0,0,8.,4.8,848.,4.8,0.,4.8,0.,4.8
1979-08-02 03:12:05.940 ,0,0,11.,4.8,880.,4.8,0.,4.8,0.,4.8
1979-08-02 03:12:10.740 ,0,0,26.,4.8,896.,4.8,0.,4.8,0.,4.8
1979-08-02 03:12:15.540 ,0,0,10.,4.8,848.,4.8,0.,4.8,0.,4.8
1979-08-02 03:12:20.340 ,0,0,17.,4.8,864.,4.8,0.,4.8,0.,4.8
1979-08-02 03:12:25.140 ,0,0,31.,4.8,944.,4.8,0.,4.8,0.,4.8
1979-08-02 03:12:29.940 ,0,0,22.,4.8,912.,4.8,0.,4.8,0.,4.8
1979-08-02 03:12:34.740 ,0,0,9.,4.8,832.,4.8,0.,4.8,0.,4.8
1979-08-02 03:12:39.540 ,0,0,16.,4.8,864.,4.8,0.,4.8,0.,4.8
1979-08-02 03:12:44.340 ,0,0,19.,4.8,880.,4.8,0.,4.8,0.,4.8
1979-08-02 03:12:49.140 ,1,0,16.,4.8,912.,4.8,0.,4.8,0.,4.8
1979-08-02 03:12:53.940 ,1,0,15.,4.8,896.,4.8,0.,4.8,0.,4.8
1979-08-02 03:12:58.740 ,1,0,13.,4.8,928.,4.8,0.,4.8,0.,4.8
1979-08-02 03:13:03.540 ,1,0,19.,4.8,880.,4.8,0.,4.8,0.,4.8
1979-08-02 03:13:08.340 ,1,0,21.,4.8,880.,4.8,0.,4.8,0.,4.8
1979-08-02 03:13:13.140 ,1,0,15.,4.8,832.,4.8,0.,4.8,0.,4.8
1979-08-02 03:13:17.940 ,1,0,17.,4.8,832.,4.8,0.,4.8,0.,4.8
1979-08-02 03:13:22.740 ,1,0,14.,4.8,848.,4.8,0.,4.8,0.,4.8
1979-08-02 03:13:27.540 ,1,0,11.,4.8,848.,4.8,0.,4.8,0.,4.8
1979-08-02 03:13:32.340 ,1,0,18.,4.8,816.,4.8,0.,4.8,0.,4.8
1979-08-02 03:13:37.140 ,2,0,9.,4.8,768.,4.8,0.,4.8,0.,4.8
1979-08-02 03:13:41.940 ,2,0,16.,4.8,816.,4.8,0.,4.8,0.,4.8
1979-08-02 03:13:46.740 ,2,0,10.,4.8,784.,4.8,0.,4.8,0.,4.8
1979-08-02 03:13:51.540 ,2,0,10.,4.8,848.,4.8,0.,4.8,0.,4.8
1979-08-02 03:13:56.340 ,2,0,16.,4.8,816.,4.8,0.,4.8,0.,4.8
1979-08-02 03:14:01.140 ,2,0,18.,4.8,784.,4.8,0.,4.8,0.,4.8
1979-08-02 03:14:05.940 ,2,0,8.,4.8,784.,4.8,0.,4.8,0.,4.8
1979-08-02 03:14:10.740 ,2,0,13.,4.8,768.,4.8,0.,4.8,0.,4.8
1979-08-02 03:14:15.540 ,2,0,13.,4.8,768.,4.8,0.,4.8,0.,4.8
1979-08-02 03:14:20.340 ,2,0,14.,4.8,800.,4.8,0.,4.8,0.,4.8
1979-08-02 03:14:25.140 ,3,0,1.,4.8,816.,4.8,0.,4.8,0.,4.8
1979-08-02 03:14:29.940 ,3,0,7.,4.8,800.,4.8,0.,4.8,0.,4.8
1979-08-02 03:14:34.740 ,3,0,8.,4.8,768.,4.8,0.,4.8,0.,4.8
1979-08-02 03:14:39.540 ,3,0,12.,4.8,784.,4.8,0.,4.8,0.,4.8
1979-08-02 03:14:44.340 ,3,0,14.,4.8,800.,4.8,0.,4.8,0.,4.8
1979-08-02 03:14:49.140 ,3,0,14.,4.8,736.,4.8,0.,4.8,0.,4.8
1979-08-02 03:14:53.940 ,3,0,9.,4.8,720.,4.8,0.,4.8,0.,4.8
1979-08-02 03:14:58.740 ,3,0,12.,4.8,752.,4.8,0.,4.8,0.,4.8
1979-08-02 03:15:03.540 ,3,0,14.,4.8,672.,4.8,0.,4.8,0.,4.8
1979-08-02 03:15:08.340 ,3,0,13.,4.8,768.,4.8,0.,4.8,0.,4.8
1979-08-02 03:15:13.140 ,4,0,4.,4.8,720.,4.8,0.,4.8,0.,4.8
1979-08-02 03:15:17.940 ,4,0,5.,4.8,704.,4.8,0.,4.8,0.,4.8
1979-08-02 03:15:22.740 ,4,0,15.,4.8,800.,4.8,0.,4.8,0.,4.8
1979-08-02 03:15:27.540 ,4,0,17.,4.8,784.,4.8,0.,4.8,0.,4.8
1979-08-02 03:15:32.340 ,4,0,17.,4.8,752.,4.8,0.,4.8,0.,4.8
1979-08-02 03:15:37.140 ,4,0,21.,4.8,800.,4.8,0.,4.8,0.,4.8
1979-08-02 03:15:41.940 ,4,0,18.,4.8,816.,4.8,0.,4.8,0.,4.8
1979-08-02 03:15:46.740 ,4,0,14.,4.8,800.,4.8,0.,4.8,0.,4.8
1979-08-02 03:15:51.540 ,4,0,18.,4.8,848.,4.8,0.,4.8,0.,4.8
1979-08-02 03:15:56.340 ,4,0,21.,4.8,832.,4.8,0.,4.8,0.,4.8
1979-08-02 03:16:01.140 ,5,0,21.,4.8,816.,4.8,0.,4.8,0.,4.8
1979-08-02 03:16:05.940 ,5,0,24.,4.8,800.,4.8,0.,4.8,0.,4.8
1979-08-02 03:16:10.740 ,5,0,20.,4.8,784.,4.8,0.,4.8,0.,4.8
1979-08-02 03:16:15.540 ,5,0,13.,4.8,832.,4.8,0.,4.8,0.,4.8
1979-08-02 03:16:20.340 ,5,0,23.,4.8,784.,4.8,0.,4.8,0.,4.8
1979-08-02 03:16:25.140 ,5,0,13.,4.8,832.,4.8,0.,4.8,0.,4.8
1979-08-02 03:16:29.940 ,5,0,20.,4.8,800.,4.8,0.,4.8,0.,4.8
1979-08-02 03:16:34.740 ,5,0,25.,4.8,880.,4.8,0.,4.8,0.,4.8
1979-08-02 03:16:39.540 ,5,0,18.,4.8,848.,4.8,0.,4.8,0.,4.8
1979-08-02 03:16:44.340 ,5,0,22.,4.8,864.,4.8,0.,4.8,0.,4.8
1979-08-02 03:16:49.140 ,6,0,28.,4.8,832.,4.8,0.,4.8,0.,4.8
1979-08-02 03:16:53.940 ,6,0,23.,4.8,832.,4.8,0.,4.8,0.,4.8
1979-08-02 03:16:58.740 ,6,0,14.,4.8,800.,4.8,0.,4.8,0.,4.8
1979-08-02 03:17:03.540 ,6,0,18.,4.8,784.,4.8,0.,4.8,0.,4.8
1979-08-02 03:17:08.340 ,6,0,12.,4.8,816.,4.8,0.,4.8,0.,4.8
1979-08-02 03:17:13.140 ,6,0,20.,4.8,800.,4.8,0.,4.8,0.,4.8
1979-08-02 03:17:17.940 ,6,0,18.,4.8,816.,4.8,0.,4.8,0.,4.8
1979-08-02 03:17:22.740 ,6,0,18.,4.8,736.,4.8,0.,4.8,0.,4.8
1979-08-02 03:17:27.540 ,6,0,21.,4.8,768.,4.8,0.,4.8,0.,4.8
1979-08-02 03:17:32.340 ,6,0,12.,4.8,752.,4.8,0.,4.8,0.,4.8
1979-08-02 03:17:37.140 ,7,0,27.,4.8,768.,4.8,0.,4.8,0.,4.8
1979-08-02 03:17:41.940 ,7,0,17.,4.8,752.,4.8,0.,4.8,0.,4.8
1979-08-02 03:17:46.740 ,7,0,12.,4.8,752.,4.8,0.,4.8,0.,4.8
1979-08-02 03:17:51.540 ,7,0,12.,4.8,720.,4.8,0.,4.8,0.,4.8
1979-08-02 03:17:56.340 ,7,0,16.,4.8,736.,4.8,0.,4.8,0.,4.8
1979-08-02 03:18:01.140 ,7,0,15.,4.8,768.,4.8,0.,4.8,0.,4.8
1979-08-02 03:18:05.940 ,7,0,8.,4.8,736.,4.8,0.,4.8,0.,4.8
1979-08-02 03:18:10.740 ,7,0,21.,4.8,704.,4.8,0.,4.8,0.,4.8
1979-08-02 03:18:15.540 ,7,0,12.,4.8,736.,4.8,0.,4.8,0.,4.8
1979-08-02 03:18:20.340 ,7,0,17.,4.8,688.,4.8,0.,4.8,0.,4.8
1979-08-02 03:18:25.140 ,7,0,11.,4.8,704.,4.8,0.,4.8,0.,4.8
1979-08-02 03:18:29.940 ,7,0,12.,4.8,672.,4.8,0.,4.8,0.,4.8
1979-08-02 03:18:34.740 ,7,0,8.,4.8,688.,4.8,0.,4.8,0.,4.8
1979-08-02 03:18:39.540 ,7,0,10.,4.8,688.,4.8,0.,4.8,0.,4.8
1979-08-02 03:18:44.340 ,7,0,15.,4.8,672.,4.8,0.,4.8,0.,4.8
1979-08-02 03:18:49.140 ,7,0,14.,4.8,704.,4.8,0.,4.8,0.,4.8
1979-08-02 03:18:53.940 ,7,0,19.,4.8,640.,4.8,0.,4.8,0.,4.8
1979-08-02 03:18:58.740 ,7,0,19.,4.8,672.,4.8,0.,4.8,0.,4.8
1979-08-02 03:19:03.540 ,7,0,12.,4.8,624.,4.8,0.,4.8,0.,4.8
1979-08-02 03:19:08.340 ,7,0,14.,4.8,656.,4.8,0.,4.8,0.,4.8
1979-08-02 03:19:13.140 ,6,0,15.,4.8,704.,4.8,0.,4.8,0.,4.8
1979-08-02 03:19:17.940 ,6,0,14.,4.8,672.,4.8,0.,4.8,0.,4.8
1979-08-02 03:19:22.740 ,6,0,10.,4.8,768.,4.8,0.,4.8,0.,4.8
1979-08-02 03:19:27.540 ,6,0,17.,4.8,720.,4.8,0.,4.8,0.,4.8
1979-08-02 03:19:32.340 ,6,0,17.,4.8,656.,4.8,0.,4.8,0.,4.8
1979-08-02 03:19:37.140 ,6,0,13.,4.8,688.,4.8,0.,4.8,0.,4.8
1979-08-02 03:19:41.940 ,6,0,13.,4.8,688.,4.8,0.,4.8,0.,4.8
1979-08-02 03:19:46.740 ,6,0,9.,4.8,688.,4.8,0.,4.8,0.,4.8
1979-08-02 03:19:51.540 ,6,0,6.,4.8,704.,4.8,0.,4.8,0.,4.8
1979-08-02 03:19:56.340 ,6,0,17.,4.8,720.,4.8,0.,4.8,0.,4.8
1979-08-02 03:20:01.140 ,5,0,18.,4.8,688.,4.8,0.,4.8,0.,4.8
1979-08-02 03:20:05.940 ,5,0,15.,4.8,704.,4.8,0.,4.8,0.,4.8
1979-08-02 03:20:10.740 ,5,0,19.,4.8,672.,4.8,0.,4.8,0.,4.8
1979-08-02 03:20:15.540 ,5,0,17.,4.8,736.,4.8,1.,4.8,0.,4.8
1979-08-02 03:20:20.340 ,5,0,19.,4.8,736.,4.8,0.,4.8,0.,4.8
1979-08-02 03:20:25.140 ,5,0,17.,4.8,720.,4.8,0.,4.8,0.,4.8
1979-08-02 03:20:29.940 ,5,0,17.,4.8,672.,4.8,0.,4.8,0.,4.8
1979-08-02 03:20:34.740 ,5,0,18.,4.8,704.,4.8,0.,4.8,0.,4.8
1979-08-02 03:20:39.540 ,5,0,8.,4.8,688.,4.8,0.,4.8,0.,4.8
1979-08-02 03:20:44.340 ,5,0,19.,4.8,688.,4.8,0.,4.8,0.,4.8
1979-08-02 03:20:49.140 ,4,0,12.,4.8,640.,4.8,0.,4.8,0.,4.8
1979-08-02 03:20:53.940 ,4,0,19.,4.8,704.,4.8,0.,4.8,0.,4.8
1979-08-02 03:20:58.740 ,4,0,17.,4.8,656.,4.8,0.,4.8,0.,4.8
1979-08-02 03:21:03.540 ,4,0,18.,4.8,672.,4.8,0.,4.8,0.,4.8
1979-08-02 03:21:08.340 ,4,0,9.,4.8,672.,4.8,0.,4.8,0.,4.8
1979-08-02 03:21:13.140 ,4,0,23.,4.8,656.,4.8,0.,4.8,0.,4.8
1979-08-02 03:21:17.940 ,4,0,20.,4.8,688.,4.8,0.,4.8,0.,4.8
1979-08-02 03:21:22.740 ,4,0,16.,4.8,688.,4.8,0.,4.8,0.,4.8
1979-08-02 03:21:27.540 ,4,0,22.,4.8,768.,4.8,0.,4.8,0.,4.8
1979-08-02 03:21:32.340 ,4,0,11.,4.8,640.,4.8,0.,4.8,0.,4.8
1979-08-02 03:21:37.140 ,3,0,15.,4.8,720.,4.8,0.,4.8,0.,4.8
1979-08-02 03:21:41.940 ,3,0,14.,4.8,672.,4.8,0.,4.8,0.,4.8
1979-08-02 03:21:46.740 ,3,0,9.,4.8,752.,4.8,0.,4.8,0.,4.8
1979-08-02 03:21:51.540 ,3,0,11.,4.8,672.,4.8,0.,4.8,0.,4.8
1979-08-02 03:21:56.340 ,3,0,8.,4.8,720.,4.8,0.,4.8,0.,4.8
1979-08-02 03:22:01.140 ,3,0,8.,4.8,720.,4.8,0.,4.8,0.,4.8
1979-08-02 03:22:05.940 ,3,0,14.,4.8,768.,4.8,1.,4.8,0.,4.8
1979-08-02 03:22:10.740 ,3,0,18.,4.8,816.,4.8,0.,4.8,0.,4.8
1979-08-02 03:22:15.540 ,3,0,4.,4.8,784.,4.8,0.,4.8,0.,4.8
1979-08-02 03:22:20.340 ,3,0,13.,4.8,880.,4.8,0.,4.8,0.,4.8
1979-08-02 03:22:25.140 ,2,0,9.,4.8,960.,4.8,0.,4.8,0.,4.8
1979-08-02 03:22:29.940 ,2,0,12.,4.8,1056.,4.8,0.,4.8,0.,4.8
1979-08-02 03:22:34.740 ,2,0,9.,4.8,1152.,4.8,0.,4.8,0.,4.8
1979-08-02 03:22:39.540 ,2,0,18.,4.8,1248.,4.8,0.,4.8,0.,4.8
1979-08-02 03:22:44.340 ,2,0,21.,4.8,1344.,4.8,0.,4.8,0.,4.8
1979-08-02 03:22:49.140 ,2,0,19.,4.8,1376.,4.8,0.,4.8,0.,4.8
1979-08-02 03:22:53.940 ,2,0,18.,4.8,1376.,4.8,0.,4.8,0.,4.8
1979-08-02 03:22:58.740 ,2,0,24.,4.8,1312.,4.8,0.,4.8,0.,4.8
1979-08-02 03:23:03.540 ,2,0,28.,4.8,1408.,4.8,0.,4.8,0.,4.8
1979-08-02 03:23:08.340 ,2,0,19.,4.8,1504.,4.8,0.,4.8,0.,4.8
1979-08-02 03:23:13.140 ,1,0,22.,4.8,1504.,4.8,0.,4.8,0.,4.8
1979-08-02 03:23:17.940 ,1,0,21.,4.8,1440.,4.8,0.,4.8,1.,4.8
1979-08-02 03:23:22.740 ,1,0,19.,4.8,1472.,4.8,0.,4.8,0.,4.8
1979-08-02 03:23:27.540 ,1,0,24.,4.8,1440.,4.8,0.,4.8,0.,4.8
1979-08-02 03:23:32.340 ,1,0,15.,4.8,1312.,4.8,0.,4.8,0.,4.8
1979-08-02 03:23:37.140 ,1,0,24.,4.8,1248.,4.8,0.,4.8,0.,4.8
1979-08-02 03:23:41.940 ,1,0,23.,4.8,1312.,4.8,0.,4.8,0.,4.8
1979-08-02 03:23:46.740 ,1,0,24.,4.8,1248.,4.8,0.,4.8,0.,4.8
1979-08-02 03:23:51.540 ,1,0,15.,4.8,1248.,4.8,0.,4.8,0.,4.8
1979-08-02 03:23:56.340 ,1,0,16.,4.8,1152.,4.8,0.,4.8,0.,4.8
1979-08-02 03:24:01.140 ,0,0,19.,4.8,1184.,4.8,0.,4.8,0.,4.8
1979-08-02 03:24:05.940 ,0,0,17.,4.8,1216.,4.8,0.,4.8,0.,4.8
1979-08-02 03:24:10.740 ,0,0,16.,4.8,1248.,4.8,0.,4.8,0.,4.8
1979-08-02 03:24:15.540 ,0,0,24.,4.8,1152.,4.8,0.,4.8,0.,4.8
1979-08-02 03:24:20.340 ,0,0,19.,4.8,1184.,4.8,0.,4.8,0.,4.8
1979-08-02 03:24:25.140 ,0,0,4.,4.8,1120.,4.8,0.,4.8,0.,4.8
1979-08-02 03:24:29.940 ,0,0,20.,4.8,1152.,4.8,0.,4.8,0.,4.8
1979-08-02 03:24:34.740 ,0,0,13.,4.8,1120.,4.8,0.,4.8,0.,4.8
1979-08-02 03:24:39.540 ,0,0,22.,4.8,1152.,4.8,0.,4.8,0.,4.8
1979-08-02 03:24:44.340 ,0,0,13.,4.8,1152.,4.8,0.,4.8,0.,4.8
1979-08-02 03:24:49.140 ,0,0,25.,4.8,1152.,4.8,0.,4.8,0.,4.8
1979-08-02 03:24:53.940 ,0,0,17.,4.8,1120.,4.8,0.,4.8,0.,4.8
1979-08-02 03:24:58.740 ,0,0,22.,4.8,1184.,4.8,0.,4.8,0.,4.8
1979-08-02 03:25:03.540 ,0,0,15.,4.8,1152.,4.8,0.,4.8,0.,4.8
1979-08-02 03:25:08.340 ,0,0,15.,4.8,1152.,4.8,0.,4.8,0.,4.8
1979-08-02 03:25:13.140 ,0,0,25.,4.8,1120.,4.8,0.,4.8,0.,4.8
1979-08-02 03:25:17.940 ,0,0,12.,4.8,1088.,4.8,0.,4.8,0.,4.8
1979-08-02 03:25:22.740 ,0,0,20.,4.8,1184.,4.8,0.,4.8,0.,4.8
1979-08-02 03:25:27.540 ,0,0,23.,4.8,1088.,4.8,0.,4.8,0.,4.8
1979-08-02 03:25:32.340 ,0,0,16.,4.8,1088.,4.8,0.,4.8,0.,4.8
1979-08-02 03:25:37.140 ,1,0,18.,4.8,1008.,4.8,0.,4.8,0.,4.8
1979-08-02 03:25:41.940 ,1,0,20.,4.8,976.,4.8,0.,4.8,0.,4.8
1979-08-02 03:25:46.740 ,1,0,22.,4.8,1024.,4.8,0.,4.8,0.,4.8
1979-08-02 03:25:51.540 ,1,0,15.,4.8,1008.,4.8,0.,4.8,0.,4.8
1979-08-02 03:25:56.340 ,1,0,12.,4.8,1056.,4.8,0.,4.8,0.,4.8
1979-08-02 03:26:01.140 ,1,0,17.,4.8,1008.,4.8,0.,4.8,0.,4.8
1979-08-02 03:26:05.940 ,1,0,13.,4.8,1120.,4.8,0.,4.8,0.,4.8
1979-08-02 03:26:10.740 ,1,0,16.,4.8,1056.,4.8,0.,4.8,0.,4.8
1979-08-02 03:26:15.540 ,1,0,21.,4.8,1088.,4.8,0.,4.8,0.,4.8
1979-08-02 03:26:20.340 ,1,0,18.,4.8,1056.,4.8,0.,4.8,0.,4.8
1979-08-02 03:26:25.140 ,2,0,21.,4.8,944.,4.8,0.,4.8,0.,4.8
1979-08-02 03:26:29.940 ,2,0,12.,4.8,944.,4.8,0.,4.8,0.,4.8
1979-08-02 03:26:34.740 ,2,0,11.,4.8,1024.,4.8,0.,4.8,0.,4.8
1979-08-02 03:26:39.540 ,2,0,19.,4.8,1056.,4.8,0.,4.8,0.,4.8
1979-08-02 03:26:44.340 ,2,0,15.,4.8,1024.,4.8,0.,4.8,0.,4.8
1979-08-02 03:26:49.140 ,2,0,21.,4.8,976.,4.8,0.,4.8,0.,4.8
1979-08-02 03:26:53.940 ,2,0,8.,4.8,928.,4.8,0.,4.8,0.,4.8
1979-08-02 03:26:58.740 ,2,0,12.,4.8,992.,4.8,0.,4.8,0.,4.8
1979-08-02 03:27:03.540 ,2,0,16.,4.8,960.,4.8,0.,4.8,0.,4.8
1979-08-02 03:27:08.340 ,2,0,21.,4.8,1024.,4.8,0.,4.8,0.,4.8
1979-08-02 03:27:13.140 ,3,0,16.,4.8,976.,4.8,0.,4.8,0.,4.8
1979-08-02 03:27:17.940 ,3,0,13.,4.8,992.,4.8,0.,4.8,0.,4.8
1979-08-02 03:27:22.740 ,3,0,20.,4.8,992.,4.8,0.,4.8,0.,4.8
1979-08-02 03:27:27.540 ,3,0,16.,4.8,944.,4.8,0.,4.8,0.,4.8
1979-08-02 03:27:32.340 ,3,0,11.,4.8,1008.,4.8,0.,4.8,0.,4.8
1979-08-02 03:27:37.140 ,3,0,14.,4.8,992.,4.8,0.,4.8,0.,4.8
1979-08-02 03:27:41.940 ,3,0,25.,4.8,992.,4.8,0.,4.8,0.,4.8
1979-08-02 03:27:46.740 ,3,0,13.,4.8,976.,4.8,0.,4.8,0.,4.8
1979-08-02 03:27:51.540 ,3,0,16.,4.8,1024.,4.8,0.,4.8,0.,4.8
1979-08-02 03:27:56.340 ,3,0,23.,4.8,1024.,4.8,0.,4.8,0.,4.8
1979-08-02 03:28:01.140 ,4,0,15.,4.8,976.,4.8,0.,4.8,0.,4.8
1979-08-02 03:28:05.940 ,4,0,17.,4.8,1024.,4.8,0.,4.8,0.,4.8
1979-08-02 03:28:10.740 ,4,0,26.,4.8,960.,4.8,0.,4.8,0.,4.8
1979-08-02 03:28:15.540 ,4,0,25.,4.8,1008.,4.8,0.,4.8,0.,4.8
1979-08-02 03:28:20.340 ,4,0,17.,4.8,976.,4.8,0.,4.8,0.,4.8
1979-08-02 03:28:25.140 ,4,0,18.,4.8,976.,4.8,0.,4.8,0.,4.8
1979-08-02 03:28:29.940 ,4,0,30.,4.8,1008.,4.8,0.,4.8,1.,4.8
1979-08-02 03:28:34.740 ,4,0,17.,4.8,912.,4.8,0.,4.8,0.,4.8
1979-08-02 03:28:39.540 ,4,0,20.,4.8,912.,4.8,0.,4.8,0.,4.8
1979-08-02 03:28:44.340 ,4,0,23.,4.8,976.,4.8,0.,4.8,0.,4.8
1979-08-02 03:28:49.140 ,5,0,30.,4.8,960.,4.8,0.,4.8,0.,4.8
1979-08-02 03:28:53.940 ,5,0,13.,4.8,976.,4.8,0.,4.8,0.,4.8
1979-08-02 03:28:58.740 ,5,0,21.,4.8,896.,4.8,0.,4.8,0.,4.8
1979-08-02 03:29:03.540 ,5,0,29.,4.8,992.,4.8,0.,4.8,0.,4.8
1979-08-02 03:29:08.340 ,5,0,19.,4.8,1056.,4.8,0.,4.8,0.,4.8
1979-08-02 03:29:13.140 ,5,0,24.,4.8,1024.,4.8,0.,4.8,0.,4.8
1979-08-02 03:29:17.940 ,5,0,34.,4.8,1024.,4.8,0.,4.8,0.,4.8
1979-08-02 03:29:22.740 ,5,0,26.,4.8,928.,4.8,0.,4.8,0.,4.8
1979-08-02 03:29:27.540 ,5,0,32.,4.8,912.,4.8,0.,4.8,0.,4.8
1979-08-02 03:29:32.340 ,5,0,23.,4.8,1024.,4.8,0.,4.8,0.,4.8
1979-08-02 03:29:37.140 ,6,0,25.,4.8,912.,4.8,0.,4.8,0.,4.8
1979-08-02 03:29:41.940 ,6,0,29.,4.8,960.,4.8,0.,4.8,0.,4.8
1979-08-02 03:29:46.740 ,6,0,22.,4.8,912.,4.8,0.,4.8,0.,4.8
1979-08-02 03:29:51.540 ,6,0,26.,4.8,864.,4.8,0.,4.8,0.,4.8
1979-08-02 03:29:56.340 ,6,0,39.,4.8,912.,4.8,0.,4.8,0.,4.8
1979-08-02 03:30:01.140 ,6,0,33.,4.8,832.,4.8,0.,4.8,0.,4.8
1979-08-02 03:30:05.940 ,6,0,35.,4.8,800.,4.8,0.,4.8,0.,4.8
1979-08-02 03:30:10.740 ,6,0,19.,4.8,832.,4.8,0.,4.8,0.,4.8
1979-08-02 03:30:15.540 ,6,0,19.,4.8,848.,4.8,0.,4.8,0.,4.8
1979-08-02 03:30:20.340 ,6,0,30.,4.8,848.,4.8,0.,4.8,0.,4.8
1979-08-02 03:30:25.140 ,7,0,22.,4.8,832.,4.8,0.,4.8,0.,4.8
1979-08-02 03:30:29.940 ,7,0,17.,4.8,784.,4.8,0.,4.8,0.,4.8
1979-08-02 03:30:34.740 ,7,0,13.,4.8,848.,4.8,0.,4.8,0.,4.8
1979-08-02 03:30:39.540 ,7,0,15.,4.8,800.,4.8,0.,4.8,0.,4.8
1979-08-02 03:30:44.340 ,7,0,13.,4.8,880.,4.8,0.,4.8,0.,4.8
1979-08-02 03:30:49.140 ,7,0,18.,4.8,848.,4.8,0.,4.8,0.,4.8
1979-08-02 03:30:53.940 ,7,0,14.,4.8,896.,4.8,0.,4.8,0.,4.8
1979-08-02 03:30:58.740 ,7,0,15.,4.8,896.,4.8,0.,4.8,0.,4.8
1979-08-02 03:31:03.540 ,7,0,13.,4.8,816.,4.8,0.,4.8,0.,4.8
1979-08-02 03:31:08.340 ,7,0,15.,4.8,928.,4.8,0.,4.8,0.,4.8
1979-08-02 03:31:13.140 ,3,1,13.,4.8,928.,4.8,0.,4.8,0.,4.8
1979-08-02 03:31:17.940 ,3,1,33.,4.8,912.,4.8,0.,4.8,0.,4.8
1979-08-02 03:31:22.740 ,3,1,31.,4.8,992.,4.8,0.,4.8,0.,4.8
1979-08-02 03:31:27.540 ,3,1,24.,4.8,1056.,4.8,0.,4.8,0.,4.8